RH
14 14 14 14 14 14 14 14 13 13 13 13 12 12 12 12 11 11 11 10 10 9 9 9 8 8 8 8 8 8 7 7 7 6 6 6 8 11 11 10 9 8 8 8 7 7 7 7 8 8 8 8 8 8 8 7 7 7 7 7 7 6 6 6 6 6 6 7 7 10 12 15 16 18 19 20 32 35 25 23 24 23 25 26 31 37 34 30
17 17 17 17 17 16 16 15 15 15 14 14 14 13 13 12 12 12 11 11 10 10 9 9 9 9 9 9 9 9 8 8 8 7 7 6 8 10 11 10 8 8 8 8 8 8 7 7 8 8 8 8 8 8 8 8 8 8 7 7 6 6 6 6 7 6 7 6 7 8 10 12 15 18 16 19 36 41 31 28 28 29 31 33 36 37 34 32
19 19 18 18 18 18 18 17 16 16 15 15 14 14 13 13 12 12 12 11 11 10 10 10 10 10 10 10 10 9 9 9 8 7 7 7 7 9 10 10 9 8 8 8 8 8 8 8 8 8 8 8 8 8 8 9 8 8 7 7 6 6 6 6 7 7 7 7 7 7 8 10 13 16 16 20 33 41 43 40 38 42 41 39 40 39 38 38
17 17 17 17 16 16 17 16 17 16 16 16 15 15 14 14 13 12 12 12 11 11 11 10 10 10 10 10 10 10 10 9 9 8 7 7 7 9 10 10 9 8 8 8 8 8 8 8 8 8 9 8 8 8 8 9 9 9 8 7 6 6 6 6 7 7 7 7 7 7 8 9 12 15 16 20 24 31 44 47 46 53 54 49 48 48 46 51
14 13 12 12 12 12 13 13 14 14 14 15 15 15 14 14 14 13 13 12 12 11 11 10 10 10 10 10 9 10 9 8 13 14 11 9 9 10 12 12 10 8 8 8 8 8 8 9 9 9 9 9 8 8 8 8 9 9 8 7 7 7 7 7 7 7 7 8 7 8 8 8 11 14 15 18 18 21 36 45 50 57 58 58 59 58 55 63
10 9 9 8 8 8 8 9 9 9 10 11 11 12 12 13 13 13 12 12 12 11 11 11 11 10 10 10 9 10 8 8 14 17 16 14 13 14 16 18 15 10 8 8 8 8 9 9 9 9 9 9 8 8 8 8 8 8 7 7 7 7 7 7 8 8 8 8 8 8 9 9 10 14 16 17 16 17 27 38 50 59 60 59 58 57 52 54
8 8 8 8 8 8 8 7 7 7 7 7 7 8 9 10 10 11 11 11 11 11 11 11 11 10 10 10 9 9 8 8 9 11 12 12 13 15 17 20 21 18 12 9 9 8 8 8 9 9 9 9 8 7 7 7 8 7 7 7 7 7 7 8 9 9 9 8 8 9 9 10 11 13 15 17 15 15 21 26 37 52 59 55 51 50 44 42
9 9 10 11 11 11 11 10 10 9 8 7 7 7 7 7 7 7 8 8 9 9 10 10 11 10 10 10 9 8 8 7 8 8 8 8 8 10 12 14 19 22 19 13 10 9 8 9 9 9 9 8 8 7 7 7 7 7 6 7 7 7 7 9 11 9 9 8 9 9 8 9 12 13 14 16 15 14 17 20 26 39 47 49 50 47 37 37
12 13 14 14 14 14 14 14 14 13 12 11 10 10 9 9 8 7 7 7 6 7 7 8 9 9 9 9 9 8 7 7 8 8 8 7 7 7 8 9 12 18 21 19 16 12 9 9 8 8 8 7 7 7 7 7 7 7 6 7 7 7 7 9 10 8 9 9 9 9 8 10 13 13 13 14 14 14 14 15 23 38 44 47 48 40 33 35
13 13 13 13 14 14 14 14 14 14 14 14 13 13 13 12 12 11 11 10 8 7 6 6 6 8 8 9 9 8 7 8 7 7 8 8 7 7 7 8 8 12 17 21 21 18 14 10 9 8 8 7 7 7 7 8 8 7 7 7 6 7 7 8 9 8 8 9 9 10 9 11 14 13 12 14 14 13 14 12 21 35 40 42 41 33 31 32
11 11 11 11 11 11 11 12 12 12 13 13 14 14 14 13 13 13 13 13 12 11 9 8 6 6 6 7 8 7 7 8 7 7 7 7 7 8 8 7 8 9 13 19 22 23 19 14 11 9 8 8 7 8 8 8 9 8 7 7 7 7 7 7 9 9 9 10 9 11 11 12 14 13 12 14 13 13 14 13 17 24 22 28 34 30 28 27
9 9 9 9 9 9 9 9 9 10 10 11 11 11 12 12 12 12 12 12 12 12 12 11 10 9 7 6 6 6 7 8 7 7 7 7 7 7 8 9 12 14 15 19 21 22 21 17 13 9 10 10 9 12 13 11 13 13 9 8 9 10 10 12 15 14 12 10 9 12 13 14 13 12 13 13 13 13 14 14 17 20 16 19 28 27 25 23
8 8 8 8 8 8 8 8 8 8 8 8 8 8 9 9 10 10 10 10 10 11 11 11 11 11 10 8 7 6 7 7 7 6 6 7 7 7 7 10 16 21 22 24 23 21 20 18 15 10 10 13 15 17 20 18 19 20 15 12 13 14 15 16 18 18 15 12 11 13 16 15 13 13 14 13 14 14 14 15 16 17 16 17 22 24 27 25
8 8 8 8 7 7 7 7 7 7 7 7 7 7 7 8 9 9 9 8 8 10 10 11 11 11 11 10 9 8 6 6 7 6 6 6 7 7 7 11 18 22 25 30 29 25 22 18 16 12 10 16 20 19 22 24 23 24 22 19 19 20 21 19 18 18 17 16 14 15 17 15 13 13 14 14 14 14 14 15 16 15 15 17 21 23 29 28
8 8 8 7 8 8 8 8 8 8 8 7 7 7 8 8 8 9 9 9 9 9 9 10 10 10 10 10 9 9 8 7 6 6 5 6 6 7 10 18 23 22 23 30 32 30 27 21 16 13 11 15 22 24 25 26 25 25 24 23 23 22 23 21 19 18 17 17 17 17 17 15 14 14 13 14 15 14 15 15 16 15 14 18 21 22 30 32
8 8 8 8 8 8 8 9 8 8 8 8 8 8 8 8 8 9 9 9 9 9 9 9 9 10 11 10 11 11 11 10 8 7 6 5 6 7 11 18 24 24 25 29 31 30 30 23 16 14 14 16 21 25 28 28 26 26 25 25 23 23 23 21 20 19 18 18 18 18 18 16 15 14 14 14 16 15 15 16 16 15 14 17 19 18 28 33
8 8 8 8 8 8 9 9 8 8 8 8 8 8 8 8 8 8 9 9 9 9 9 9 9 10 10 10 10 10 10 10 10 9 7 6 5 6 9 15 23 25 27 31 31 29 29 22 16 16 17 19 22 25 29 30 27 27 26 25 23 22 23 22 20 20 20 19 19 20 20 17 14 14 14 14 15 15 15 16 15 15 14 15 17 14 21 33
8 8 8 8 8 8 8 8 8 8 9 9 9 9 9 9 9 9 9 9 9 9 9 9 9 9 10 13 13 11 12 12 12 10 10 10 9 7 7 14 24 26 26 31 29 27 28 21 17 20 20 21 24 25 28 28 25 26 26 24 24 23 22 22 20 19 19 19 20 21 20 19 16 14 14 14 14 15 15 16 15 15 15 14 16 12 16 33
9 9 10 9 9 9 9 10 10 11 12 12 11 11 11 10 10 10 10 10 9 9 10 10 10 9 11 16 17 16 15 16 16 15 13 14 16 13 8 14 23 26 27 29 27 25 26 22 19 20 19 18 21 25 28 29 26 25 25 23 22 23 22 21 21 20 19 19 19 19 20 19 18 16 16 16 15 15 15 16 15 15 15 14 14 12 14 27
12 13 13 12 12 12 12 13 14 14 15 15 15 13 13 12 12 12 12 11 10 10 10 9 9 9 10 11 12 12 12 13 16 18 17 17 20 17 12 15 22 27 28 28 28 26 27 27 22 17 15 17 22 27 30 32 31 29 27 24 21 21 23 22 21 20 19 20 18 18 20 20 19 18 18 18 18 17 15 15 16 15 14 14 13 13 12 17
16 16 16 15 16 16 16 16 16 17 17 17 16 14 14 14 13 13 13 12 11 11 10 10 10 8 8 8 9 9 10 11 14 18 20 22 26 22 17 19 23 28 30 30 32 32 32 30 23 16 17 22 26 29 31 32 32 32 31 28 24 22 24 23 20 18 18 19 19 17 20 21 21 20 18 19 19 18 16 14 15 15 15 15 13 14 12 12
18 18 18 18 19 19 19 18 18 18 16 15 14 13 13 12 11 11 11 11 11 12 12 12 12 10 9 9 9 9 9 10 12 17 22 26 31 28 25 26 26 28 32 34 36 40 40 29 19 19 21 23 26 29 32 32 32 33 33 32 29 25 25 26 21 18 19 19 18 18 20 21 20 21 19 18 18 18 18 15 14 15 16 16 13 13 12 11
21 22 21 21 21 20 19 18 17 15 12 10 9 8 8 7 8 7 9 11 11 12 13 12 13 12 11 11 11 10 9 8 10 17 24 29 32 32 32 32 29 29 34 35 33 38 40 26 17 24 28 27 29 31 32 33 34 35 34 34 32 28 28 28 22 18 20 20 18 19 22 22 19 19 19 18 18 17 17 16 15 15 15 15 14 13 12 11
24 23 22 21 18 16 15 13 11 9 6 5 4 4 4 4 5 4 8 10 10 14 16 16 21 20 16 15 13 12 11 8 8 14 22 27 31 34 37 36 34 32 32 32 30 31 32 26 22 27 31 32 34 33 33 35 34 34 33 32 32 29 26 25 20 17 17 18 19 22 27 26 20 19 20 19 19 18 17 17 16 14 13 14 14 13 12 11
21 19 17 14 10 8 8 7 6 4 3 3 3 3 3 3 4 7 11 11 11 20 26 27 30 27 22 21 19 16 13 10 7 9 15 20 27 33 37 39 39 37 31 31 37 38 32 28 29 30 31 33 34 34 35 34 33 32 31 28 27 24 20 19 18 18 20 23 25 27 28 26 21 20 20 19 19 20 17 15 16 15 13 14 14 13 12 12
13 11 9 7 4 3 4 4 3 3 3 3 3 3 3 5 8 10 14 15 15 25 35 35 31 26 25 27 28 21 14 11 7 7 12 15 22 31 38 41 40 38 35 34 41 43 34 29 33 34 36 38 37 36 34 33 34 31 25 21 19 18 16 17 19 20 24 28 29 30 30 28 24 20 19 19 20 21 18 15 16 16 15 15 13 12 12 13
6 5 4 3 3 3 2 3 3 2 3 3 2 4 5 9 12 12 22 28 23 27 37 37 31 28 28 31 34 24 13 12 8 5 9 12 19 29 38 43 39 36 36 38 43 41 33 32 36 36 36 41 41 37 33 32 32 27 20 20 20 20 18 18 21 24 25 28 29 29 30 31 27 19 19 22 21 20 18 16 16 16 16 15 13 13 12 12
3 3 3 3 3 3 2 3 3 2 3 2 3 4 6 12 13 17 32 35 27 30 38 36 32 32 29 28 34 27 15 16 16 10 8 10 17 26 36 41 39 37 36 37 40 36 31 33 35 36 38 41 39 32 28 29 27 22 21 23 24 23 23 24 26 26 28 31 32 29 28 30 28 20 21 24 21 19 17 16 16 16 16 14 13 13 12 14
3 3 3 3 2 3 2 3 3 2 3 2 3 3 5 12 15 23 36 35 29 33 35 34 31 30 27 25 31 29 18 17 23 21 12 8 15 25 34 38 38 42 42 37 34 33 35 36 35 38 40 37 31 25 25 26 24 22 23 24 25 25 26 26 27 29 32 35 35 31 28 27 24 21 24 26 21 18 18 18 18 16 16 18 18 14 14 18
3 3 3 3 2 3 2 3 3 2 3 2 3 3 5 11 18 29 37 31 29 32 31 32 32 28 25 24 29 31 23 18 21 27 22 11 13 23 34 40 40 45 48 42 35 34 37 40 40 40 37 31 26 24 24 23 23 23 24 25 27 27 26 27 29 31 33 34 32 30 28 25 22 22 27 28 25 21 20 19 19 18 18 21 20 16 16 17
3 3 3 3 3 3 3 4 3 3 3 2 3 2 5 13 22 36 42 30 23 27 29 31 31 29 24 23 30 32 29 25 19 23 28 18 13 21 32 42 45 48 52 47 39 37 38 40 41 39 36 33 29 25 22 22 24 25 26 28 29 30 31 31 32 32 32 32 30 27 26 26 24 25 29 32 31 30 28 25 22 19 17 17 15 13 15 16
3 3 4 4 4 4 4 4 3 3 3 2 4 3 7 21 28 29 29 22 20 25 29 29 28 28 21 19 31 33 29 30 23 21 29 25 16 16 22 32 39 44 50 48 43 41 40 39 39 38 37 38 34 29 26 25 27 27 27 30 30 31 33 33 32 32 33 31 29 28 30 30 25 24 29 32 34 35 36 35 31 27 23 21 18 16 18 21
4 4 4 4 4 4 4 4 3 3 3 2 4 3 6 22 29 22 15 15 19 24 23 20 18 19 15 16 31 37 30 29 26 25 31 30 20 14 16 25 32 37 40 42 43 44 41 37 36 37 37 37 35 33 29 26 25 25 26 29 29 29 33 35 33 34 33 29 27 29 32 33 30 27 28 31 32 34 37 37 35 32 28 26 25 23 24 26
5 5 5 4 4 4 4 4 4 3 4 3 4 6 9 16 19 17 15 13 14 15 12 10 8 8 10 18 31 39 36 30 27 28 32 31 23 16 18 23 30 36 37 37 40 41 40 37 32 33 34 31 28 26 24 23 24 23 24 27 28 28 30 32 30 30 30 29 33 36 31 31 38 36 31 32 32 31 35 36 33 31 26 25 27 26 28 33
5 5 5 5 4 6 8 9 11 10 6 3 3 6 10 11 8 10 14 13 11 10 8 6 6 4 8 19 29 36 40 36 29 29 32 30 24 18 18 19 23 33 39 40 40 38 39 36 28 26 27 24 22 20 20 22 25 25 27 29 29 27 26 27 28 29 30 31 35 39 35 33 39 41 37 36 35 32 34 34 33 33 31 28 30 32 36 42
5 5 5 5 7 13 17 18 19 16 8 4 5 6 6 7 9 14 17 17 13 10 8 5 5 7 11 20 27 32 41 41 33 31 33 32 28 23 22 22 24 31 37 39 39 38 37 34 28 24 22 20 22 23 23 25 26 27 30 30 28 27 26 26 31 36 36 32 32 41 49 47 47 48 44 40 39 36 36 34 34 37 36 39 45 50 51 51
5 5 7 10 16 23 27 28 28 21 10 4 5 6 5 4 8 10 11 12 12 11 11 8 7 14 19 22 26 28 39 46 40 36 35 33 33 30 28 31 35 36 37 38 38 38 36 32 29 28 25 23 25 26 26 27 27 27 28 27 26 28 29 27 32 38 37 31 33 48 62 60 56 52 44 43 45 42 39 37 37 39 42 50 59 61 60 58
5 6 10 17 26 35 39 42 42 36 26 18 12 12 13 13 15 16 17 19 20 19 16 9 8 16 22 25 26 26 34 44 45 45 42 36 37 38 34 34 38 38 38 40 40 39 38 35 32 30 29 27 26 26 28 28 26 25 26 26 25 28 30 28 30 35 35 34 37 51 62 58 53 49 42 45 50 45 41 40 39 43 49 57 59 58 60 61
5 9 19 30 40 47 51 51 49 45 41 36 32 29 28 29 30 30 31 31 30 29 24 17 14 17 21 26 28 26 30 35 38 45 49 43 42 46 43 38 38 38 38 39 40 40 40 38 35 31 30 30 29 28 28 28 27 26 26 27 27 27 28 28 29 30 31 35 38 46 56 51 43 43 43 45 48 46 45 46 44 50 61 63 58 58 63 63
9 18 33 46 53 56 56 52 46 42 40 39 38 36 35 36 36 36 38 38 38 37 32 27 22 17 18 24 28 30 32 32 34 40 45 47 48 52 53 49 45 43 40 39 39 39 40 40 37 35 33 32 32 32 30 28 26 26 27 28 28 27 30 31 30 30 31 35 39 41 46 46 39 37 40 44 47 48 51 53 54 63 72 68 61 61 64 64
13 28 46 54 57 60 56 49 43 39 39 39 39 40 40 41 42 46 50 50 46 42 36 29 24 22 26 29 33 36 35 35 42 46 44 47 51 55 58 56 52 49 47 45 43 39 41 42 38 36 35 33 35 36 34 30 28 27 27 27 26 27 31 31 30 35 35 33 38 38 35 40 42 37 38 43 47 50 56 60 63 72 76 69 63 64 65 65
18 37 53 56 57 58 51 44 41 39 38 38 40 42 44 44 46 51 58 56 50 45 37 28 24 30 37 38 38 40 40 40 48 52 50 48 49 53 57 57 55 53 49 47 45 41 40 41 39 38 37 34 36 38 37 34 32 30 28 27 29 28 30 29 27 34 37 35 41 38 32 42 47 39 37 41 43 49 59 67 74 79 78 71 69 71 71 73
23 42 57 56 56 55 51 47 43 41 42 43 44 44 45 48 49 54 59 57 55 51 40 30 30 35 41 44 43 42 46 48 49 51 54 54 51 52 58 61 58 56 51 47 46 44 42 42 41 42 41 39 39 39 39 38 35 34 31 29 30 30 31 30 26 28 34 37 42 37 36 50 51 39 36 37 39 48 57 67 79 81 77 75 78 77 76 76
29 50 63 60 56 54 51 50 49 49 51 51 50 50 53 55 54 56 58 57 58 55 44 37 41 43 46 51 49 47 50 52 51 54 59 60 57 53 56 60 59 59 57 51 48 46 45 45 43 46 50 51 49 47 45 44 41 38 34 31 30 30 31 32 30 30 32 36 40 35 37 50 49 41 42 40 40 49 55 64 77 80 78 80 80 77 73 75
36 57 66 60 58 57 53 53 57 59 58 58 60 61 64 63 58 58 60 60 62 61 52 48 50 52 54 54 52 53 55 52 52 59 63 63 61 56 54 57 60 61 60 56 55 51 48 49 48 47 50 53 53 51 47 46 46 42 37 35 33 31 32 33 34 35 33 35 40 36 37 43 40 41 49 46 45 50 55 64 74 77 81 82 81 78 76 78
48 60 63 59 59 59 57 61 66 65 62 65 70 72 75 73 66 66 68 69 70 66 59 57 54 53 54 50 51 58 62 57 53 57 63 66 66 63 59 58 60 63 62 58 60 57 53 55 53 47 47 48 47 46 43 43 47 47 42 39 38 36 34 35 37 36 33 35 41 40 37 35 34 43 49 46 49 56 59 65 69 70 75 78 81 83 81 82
58 57 58 61 61 58 62 68 69 67 67 70 73 77 80 77 72 74 75 74 74 68 62 60 56 53 50 47 52 60 64 60 52 50 58 64 68 70 69 65 63 64 65 62 61 60 60 61 60 53 51 49 48 47 46 45 46 48 46 43 41 40 38 37 38 38 35 36 39 40 36 35 44 56 54 47 55 64 65 66 68 75 80 80 82 87 83 82
60 56 53 56 58 59 67 70 66 68 73 73 72 76 80 79 76 79 77 72 73 71 64 61 59 56 52 50 51 54 57 60 56 52 53 56 62 69 71 72 71 67 65 66 63 62 63 68 70 66 61 57 55 53 52 50 48 47 48 47 45 44 44 42 40 40 40 37 36 39 40 44 56 67 64 62 68 72 73 75 79 90 97 93 92 94 84 76
53 53 49 48 49 53 61 65 64 69 74 72 68 70 77 81 78 77 75 70 69 70 65 62 62 61 58 55 52 51 53 57 60 59 58 58 62 65 64 67 73 73 70 71 68 64 64 70 74 73 71 67 63 61 60 57 54 52 52 53 52 50 49 47 44 43 43 41 40 41 42 48 61 72 77 79 78 77 82 88 92 97 100 98 97 95 83 73
48 49 47 43 43 48 57 66 68 69 69 68 66 65 73 84 80 73 71 68 67 68 64 61 63 65 64 60 56 55 55 56 59 62 65 67 68 67 65 63 67 72 74 73 70 67 68 74 78 77 78 77 73 69 69 68 65 61 60 59 59 58 56 54 51 49 49 48 45 44 45 53 69 80 84 87 89 90 92 96 98 100 101 100 98 94 90 86
48 50 49 43 38 41 51 62 67 68 67 66 66 64 68 79 82 77 72 67 66 68 66 63 62 64 66 64 60 59 59 59 59 59 65 71 71 69 70 68 66 72 77 75 73 71 69 73 78 78 81 85 83 78 78 79 75 70 69 68 67 67 63 60 59 59 57 53 51 55 58 63 74 83 87 93 98 96 94 93 93 94 93 93 92 92 97 99
46 47 48 45 42 41 45 51 55 62 66 66 65 64 63 68 73 74 72 66 62 62 62 63 62 60 61 63 62 60 59 60 61 60 63 69 71 70 70 71 71 75 76 71 69 69 68 70 75 78 83 89 89 86 87 87 82 81 83 81 77 75 70 65 65 64 61 57 56 62 66 69 79 89 92 96 99 97 95 95 93 93 92 90 88 90 95 100
Wind_Speed
10 10 10 10 11 11 11 12 12 12 13 13 14 14 14 14 15 15 15 15 15 15 15 14 14 14 13 13 12 12 13 14 14 14 14 14 14 14 14 12 12 12 13 13 13 12 12 12 13 13 13 13 13 13 13 14 14 14 14 15 14 13 15 14 12 12 12 11 10 10 8 7 6 5 8 8 4 5 6 6 4 5 5 6 8 8 7 8
10 10 10 10 10 10 11 11 11 12 12 13 13 14 14 14 14 14 14 14 15 15 15 14 14 13 13 12 12 11 12 13 14 14 14 14 14 14 15 13 11 12 13 13 13 13 13 13 13 14 14 14 14 14 14 15 15 15 15 15 14 14 15 14 12 13 13 13 13 12 11 8 8 6 8 8 3 6 7 7 5 3 3 6 6 5 6 7
10 10 10 10 10 11 11 11 12 12 12 13 13 13 13 13 13 13 13 14 14 14 14 14 13 13 13 12 12 12 12 12 13 13 13 14 14 15 15 13 11 12 12 13 13 13 13 13 14 14 14 14 14 14 15 15 16 16 15 15 14 15 15 14 14 14 14 14 14 13 12 9 8 7 7 5 3 4 6 8 7 4 2 6 6 4 6 8
12 12 12 11 11 12 12 12 12 12 13 13 13 14 13 13 13 13 13 13 14 14 14 13 13 13 13 13 12 12 12 12 12 12 13 14 14 15 15 13 12 12 12 12 12 13 13 13 14 14 14 15 15 15 16 17 17 17 16 14 14 14 14 15 16 15 15 16 15 13 12 10 8 6 6 3 2 2 3 7 8 5 3 6 7 6 8 9
13 13 13 12 12 12 12 13 13 13 14 14 14 14 14 14 14 14 13 13 13 13 13 13 13 13 13 13 12 12 11 11 11 11 11 13 14 14 13 12 11 12 12 12 12 13 13 14 14 14 14 15 14 15 16 17 17 18 16 14 15 16 16 16 16 16 16 16 15 14 12 10 8 5 4 3 3 2 2 5 7 6 4 6 9 10 10 11
13 12 12 12 12 12 12 12 13 13 14 14 15 15 15 15 15 15 14 14 14 14 13 13 13 13 12 11 11 11 10 10 9 7 7 10 12 13 13 11 10 12 13 12 13 13 13 14 14 14 14 14 13 14 16 16 17 17 15 15 17 18 18 17 17 16 16 16 15 13 12 10 8 7 5 2 4 2 3 4 6 7 7 7 9 10 8 8
12 11 11 10 10 11 11 11 12 12 13 14 14 15 15 16 15 15 15 15 15 14 14 13 13 12 12 11 10 10 11 12 11 8 8 9 10 11 12 11 10 10 12 12 13 13 14 15 14 14 13 12 12 13 15 15 15 15 14 15 16 17 18 18 17 16 16 17 15 14 12 9 8 8 7 2 4 2 2 2 4 7 9 8 8 6 3 5
12 11 11 11 11 11 11 11 12 12 12 13 13 13 14 15 15 15 15 15 16 15 15 14 13 12 11 11 10 9 11 13 12 11 11 11 11 12 12 11 10 10 11 12 12 14 14 15 14 13 12 12 11 11 13 14 14 14 13 14 15 16 17 18 18 16 16 16 15 14 12 8 9 10 9 5 4 4 3 2 3 7 10 8 6 3 2 3
13 12 12 12 12 12 12 12 13 13 13 13 13 13 13 14 14 14 14 14 15 15 15 14 14 13 12 11 10 10 11 12 11 12 12 12 13 13 13 13 12 11 12 12 13 14 14 14 13 12 11 11 11 12 13 14 13 12 12 13 14 15 17 18 18 17 17 16 14 14 12 10 10 11 10 7 5 6 5 4 3 6 9 7 4 2 1 4
14 14 14 14 14 13 13 13 13 14 14 14 14 14 14 14 14 14 13 13 14 14 14 13 14 13 12 11 11 10 10 10 11 12 12 13 13 13 13 13 12 12 13 13 14 15 16 15 13 13 13 12 12 13 13 13 12 11 12 13 15 16 17 19 20 18 18 17 14 13 12 12 11 11 10 7 7 7 7 6 4 6 7 6 4 1 3 6
15 15 15 15 15 15 15 15 14 15 15 15 15 15 15 15 15 14 14 14 14 14 13 12 12 12 12 12 12 12 11 11 11 12 13 13 13 13 13 12 12 12 13 14 15 16 16 15 14 14 13 12 12 12 12 12 11 12 13 15 16 16 17 19 19 18 19 18 14 13 14 14 13 12 10 7 7 7 6 6 7 7 6 6 5 3 2 5
16 16 16 16 15 15 16 15 15 15 16 16 17 17 16 16 16 15 15 15 15 14 13 13 12 11 11 10 11 13 12 11 12 13 14 13 13 13 12 11 10 11 13 14 15 16 16 15 15 14 12 11 12 10 10 12 11 11 14 16 16 17 18 19 19 18 18 17 14 13 15 16 14 12 11 10 8 7 6 6 7 7 6 5 4 3 2 4
16 16 15 16 16 16 16 16 16 16 16 17 18 18 18 17 17 17 17 17 16 15 14 14 13 12 11 8 9 12 11 11 12 12 13 13 13 13 12 10 9 11 12 14 15 16 16 15 15 16 14 12 12 11 10 11 12 12 14 15 16 17 17 16 14 14 15 14 12 13 15 16 12 9 11 13 11 9 8 7 7 6 5 4 3 3 3 5
15 15 15 15 15 16 16 15 15 16 16 18 19 19 19 18 18 18 18 18 18 17 15 15 13 13 12 9 9 11 11 12 12 11 12 13 14 15 12 10 10 11 12 13 15 16 15 15 15 16 16 14 14 13 11 11 12 13 13 15 17 15 12 10 6 4 6 6 8 12 14 16 12 9 11 13 13 12 10 10 9 7 5 5 4 3 4 6
15 15 15 15 16 16 16 16 16 17 18 19 20 20 20 20 19 19 19 19 19 18 17 17 15 15 14 12 13 12 11 13 13 13 13 13 14 14 11 10 12 13 14 14 15 15 15 15 17 17 18 17 15 14 14 13 12 13 11 11 14 12 10 10 6 4 4 4 6 9 10 13 11 9 10 12 13 13 13 13 12 10 8 6 5 4 6 8
15 15 16 16 17 17 17 17 17 18 20 21 22 22 21 21 21 21 21 21 21 20 20 18 17 16 15 14 14 13 11 12 14 14 14 14 15 13 12 13 15 15 15 14 15 16 15 15 17 18 19 18 18 16 15 14 14 14 12 11 12 11 10 8 5 4 6 6 7 7 7 9 10 8 9 11 11 12 13 14 13 12 10 7 6 5 7 9
16 16 17 17 18 18 18 18 19 20 21 22 23 23 22 22 22 23 22 22 22 22 22 20 19 19 17 15 16 15 13 12 13 15 15 15 16 15 15 16 16 16 15 15 15 16 15 17 18 19 20 20 20 18 14 14 16 15 13 13 13 13 12 10 6 5 5 6 7 7 6 9 13 12 11 11 12 11 11 12 13 14 12 9 7 6 8 10
16 17 17 18 19 19 19 19 19 20 22 23 23 23 22 22 23 23 23 23 23 23 23 21 21 20 17 15 15 15 14 13 14 16 16 15 15 15 18 18 18 18 17 16 16 16 17 18 20 21 21 21 21 21 17 14 14 13 12 13 13 14 13 12 9 8 9 10 10 9 8 9 12 14 14 13 14 13 13 13 13 14 14 11 9 8 10 13
17 17 18 19 19 19 19 19 19 20 22 23 23 22 21 22 22 22 22 23 23 22 22 21 21 20 16 12 12 13 12 12 13 16 17 16 14 15 19 20 20 19 18 17 17 18 19 20 23 23 24 24 23 23 21 16 12 10 11 12 13 14 14 13 10 9 11 13 13 13 11 10 11 13 14 14 15 16 16 16 16 16 15 13 11 11 12 15
17 17 18 18 19 19 19 18 19 20 20 22 22 21 20 20 21 21 21 21 20 20 20 20 21 22 21 19 19 20 18 15 13 14 16 17 15 16 20 22 21 20 19 18 18 20 21 22 25 25 25 25 23 21 19 17 15 14 13 14 15 17 18 16 14 11 12 15 15 14 13 13 13 13 15 16 16 18 20 20 19 18 17 16 15 15 15 15
17 17 18 18 19 19 18 18 18 19 19 20 20 19 19 19 19 20 21 19 16 18 19 19 21 21 19 21 24 25 24 21 16 14 16 17 16 18 21 22 23 22 20 19 20 20 22 24 25 25 25 23 20 19 18 17 17 17 16 17 19 22 22 20 18 15 14 16 16 14 15 15 15 16 17 18 18 19 21 24 24 22 19 17 17 17 16 16
17 17 18 18 19 18 18 17 17 17 17 19 19 18 18 18 18 19 20 17 12 14 17 18 20 17 14 18 23 24 26 25 20 17 18 18 18 19 21 23 23 22 20 21 22 20 22 26 25 23 24 24 21 18 17 17 17 17 17 18 19 22 21 18 15 11 9 13 15 14 16 16 16 17 18 18 20 20 22 26 28 26 22 19 18 18 18 18
17 17 17 17 17 17 16 16 16 15 16 17 17 16 15 15 15 15 16 15 11 9 12 15 16 13 13 17 20 22 26 26 23 20 19 19 19 20 22 23 22 21 21 23 24 23 23 24 24 24 24 22 21 20 18 18 19 19 19 19 20 21 18 15 13 10 8 11 13 13 15 17 17 19 18 18 21 23 24 27 29 29 26 22 20 19 18 18
16 16 16 16 15 15 15 14 14 13 14 16 15 15 14 13 13 12 11 12 9 5 4 8 8 8 11 15 18 21 23 25 25 23 22 21 20 21 23 22 20 20 21 22 24 26 25 21 19 21 23 21 19 20 20 20 21 22 23 23 23 22 20 18 16 14 13 14 13 12 14 16 17 18 17 16 18 23 26 27 29 31 30 27 23 21 20 19
14 14 15 14 13 14 13 13 12 12 13 13 13 13 12 11 10 9 9 9 7 3 1 4 2 3 6 9 14 17 20 23 23 23 25 24 22 23 23 22 22 21 19 20 24 26 26 23 17 14 16 19 20 20 20 20 20 22 23 24 22 20 19 18 17 16 14 12 8 6 6 10 13 15 14 15 16 20 26 31 31 31 31 30 28 25 22 20
13 13 13 12 11 11 11 11 10 10 11 10 10 11 9 8 7 6 8 10 5 2 2 2 2 1 3 7 10 10 14 17 19 24 28 26 23 24 23 23 23 20 17 19 23 24 24 25 22 15 12 14 16 18 18 17 16 18 18 17 15 15 14 14 14 13 10 7 4 5 6 8 12 14 13 15 17 20 26 33 35 33 30 30 30 27 24 22
11 12 11 9 9 9 9 9 8 8 8 8 9 8 7 6 6 5 6 7 3 0 2 1 2 2 5 7 7 4 6 10 17 26 28 25 25 26 25 24 23 20 18 18 20 22 22 23 24 22 18 16 17 17 15 14 14 12 9 7 8 9 9 9 9 10 10 9 11 13 12 10 13 14 13 15 17 18 22 29 33 33 31 30 31 30 27 25
10 9 8 7 7 7 7 7 7 6 7 7 7 6 5 4 4 3 3 2 0 2 2 3 2 2 6 6 4 2 5 9 12 21 26 25 25 26 26 25 24 21 19 18 18 18 18 19 19 21 22 21 20 16 12 13 14 10 4 4 4 5 6 7 8 10 10 10 11 11 8 7 8 11 13 15 14 15 19 24 29 31 32 32 32 32 30 28
8 6 6 7 6 5 5 6 6 6 6 7 5 5 5 4 3 1 1 0 1 3 3 1 2 1 6 7 2 3 9 11 9 12 21 25 25 26 25 25 24 21 18 17 18 16 14 12 11 13 17 18 16 12 10 11 11 7 5 5 5 5 6 7 8 8 7 6 8 8 6 5 6 9 10 10 9 13 18 22 26 29 30 30 30 32 32 30
5 4 6 6 5 4 5 5 6 6 7 6 5 5 5 4 3 1 0 2 3 3 4 4 5 3 6 8 2 3 9 14 12 9 14 22 26 26 26 24 23 21 18 17 17 17 16 13 10 10 11 12 11 10 10 10 8 7 6 6 5 5 5 5 5 4 4 5 9 10 8 6 4 6 7 6 6 10 14 18 21 25 28 29 30 32 31 29
3 5 6 5 5 5 6 6 7 7 7 6 6 6 6 6 5 3 1 2 3 3 4 5 6 5 4 8 5 3 7 13 15 11 10 18 26 29 28 25 22 19 17 20 20 19 19 18 15 12 11 10 10 10 11 10 9 8 8 5 3 3 3 2 3 4 4 4 5 9 8 8 6 4 4 5 6 8 10 13 17 20 24 26 27 28 27 26
4 5 5 5 6 7 7 7 7 7 7 7 6 7 8 7 6 6 4 1 2 3 3 4 6 6 5 8 7 5 7 12 15 13 10 14 23 30 31 29 27 20 15 21 24 20 20 21 19 16 15 14 12 13 14 13 12 11 11 8 5 3 3 3 3 3 5 5 5 6 5 8 9 9 8 7 6 7 8 10 14 17 19 21 22 21 22 21
4 4 5 6 7 7 7 7 7 7 8 8 7 9 11 7 4 8 9 5 4 4 3 5 7 7 9 8 7 5 6 10 14 14 10 11 19 29 32 32 30 22 15 19 22 18 16 18 19 19 19 17 17 17 16 14 12 12 13 12 9 4 2 2 2 1 4 6 8 9 5 5 8 9 11 10 8 7 7 9 12 14 15 16 17 17 18 20
4 4 5 7 7 7 6 6 6 7 7 8 9 11 12 8 4 6 8 8 9 10 11 12 11 11 9 5 5 5 4 9 12 14 10 10 18 26 30 31 29 23 17 14 14 14 12 11 14 17 17 16 18 19 16 12 11 10 10 13 14 11 6 3 3 3 3 3 6 9 6 4 6 8 10 11 10 8 7 9 11 12 14 14 15 16 18 21
4 5 6 6 6 6 4 4 4 5 7 8 10 14 14 10 7 6 7 8 10 11 11 11 12 12 9 2 2 4 2 6 10 12 9 10 16 21 25 28 27 25 21 14 8 9 10 9 9 14 14 12 14 16 14 13 12 10 9 13 15 14 10 6 4 4 3 1 3 7 6 6 8 10 10 11 12 10 8 9 11 11 13 13 13 15 16 18
4 5 5 5 5 4 3 2 3 4 6 8 12 16 16 11 8 8 8 9 10 12 12 10 9 10 8 4 2 2 1 5 8 11 10 9 13 16 20 24 25 24 23 19 12 8 8 7 6 11 15 13 11 12 12 11 11 10 12 15 14 13 12 8 4 3 2 2 4 5 5 7 8 9 11 12 12 12 10 10 10 10 11 11 11 12 13 15
4 5 4 4 4 3 2 2 3 4 6 8 12 14 13 11 11 12 12 12 13 13 13 10 6 5 5 3 2 1 1 5 8 10 10 11 11 14 19 21 22 23 21 20 17 12 10 8 6 7 11 14 12 10 10 10 10 10 13 15 12 10 12 10 3 1 2 3 3 3 4 6 7 6 10 14 12 12 12 12 12 11 10 11 12 13 14 16
4 4 4 4 3 3 2 2 3 4 5 8 10 11 10 11 13 13 13 13 12 11 10 8 5 5 4 4 2 2 2 4 7 9 10 12 10 10 17 21 20 21 21 20 19 16 13 10 7 6 8 11 12 11 10 11 12 12 11 12 10 7 9 11 5 1 3 3 1 2 4 6 9 7 8 11 11 11 12 14 13 12 12 12 14 16 17 19
5 5 5 4 4 3 3 3 3 4 6 8 9 9 9 10 12 12 12 12 11 10 8 7 6 6 5 6 5 1 2 1 5 8 9 13 9 6 12 17 17 18 20 21 21 19 17 12 8 7 7 8 10 11 12 12 14 15 12 11 11 8 8 11 10 5 3 2 1 2 2 4 10 10 7 8 10 10 12 13 13 12 13 14 14 15 16 19
5 6 6 5 5 4 4 4 4 5 6 7 8 9 9 10 12 12 12 12 11 9 7 7 8 8 7 6 6 4 2 2 2 5 8 13 12 8 9 11 12 13 15 18 20 20 20 17 9 6 6 7 8 9 10 11 14 17 16 15 15 13 8 8 10 8 4 2 2 2 2 4 9 11 9 9 10 11 12 12 12 12 13 14 13 10 11 15
6 6 6 6 5 5 5 5 5 5 5 6 7 8 10 12 12 11 10 11 10 8 7 7 8 7 7 6 5 5 4 2 1 1 6 13 16 14 11 8 10 12 12 15 18 20 21 21 17 11 8 7 6 6 7 10 12 15 17 18 18 18 13 7 7 9 7 3 3 3 2 3 8 12 12 11 10 10 11 12 12 13 14 16 13 10 11 15
6 6 6 5 4 5 5 5 5 5 5 5 6 6 8 10 10 9 10 10 8 7 8 8 7 7 6 6 6 5 4 3 1 1 4 10 15 16 14 12 12 13 13 14 16 19 20 20 19 18 16 13 9 7 7 8 10 11 14 16 17 19 18 11 7 8 10 6 4 4 3 3 6 10 12 13 12 10 10 11 13 15 16 16 13 12 14 15
6 6 5 3 3 4 4 5 4 4 3 2 3 4 4 6 7 7 8 8 7 6 7 7 7 7 6 6 7 7 5 3 2 2 4 7 11 14 13 14 14 13 13 13 14 18 20 18 17 15 14 14 12 11 10 9 8 10 12 14 16 18 19 15 10 8 11 10 7 4 3 5 8 9 11 14 14 12 11 12 14 16 18 16 13 12 12 13
6 6 4 3 3 3 3 3 2 1 2 2 2 2 2 2 3 5 6 7 7 7 7 8 7 8 7 6 7 7 6 5 3 2 4 7 10 14 14 13 14 13 12 11 13 17 18 16 16 12 6 6 8 8 9 9 9 10 11 12 14 16 18 16 12 8 10 12 11 6 3 5 8 10 11 13 14 13 12 13 15 17 18 17 14 11 11 12
6 6 5 4 3 3 2 1 1 1 2 2 2 2 1 1 2 4 6 6 6 7 7 7 8 8 6 5 6 7 8 8 5 2 4 6 8 13 15 14 15 15 14 12 12 15 16 15 16 14 7 6 8 7 8 10 9 10 12 12 12 14 16 14 11 9 8 11 13 9 4 6 8 9 11 13 13 13 13 14 16 17 17 16 14 12 12 13
6 6 6 4 3 2 1 1 1 2 2 3 3 2 2 2 2 3 6 6 5 6 6 6 7 7 7 7 6 6 9 11 10 5 4 5 6 10 13 15 14 14 16 17 15 14 14 13 15 16 12 10 11 11 13 13 12 10 11 12 12 12 13 12 10 9 9 10 13 13 10 9 9 9 12 14 14 14 14 15 16 16 15 14 13 11 10 11
6 5 5 4 2 2 2 1 2 2 3 4 3 3 2 2 1 3 5 6 5 5 4 5 4 4 6 7 7 7 8 9 12 12 9 6 7 9 12 15 15 14 15 18 19 18 15 12 14 16 14 12 11 11 12 13 12 11 11 12 12 12 12 13 11 9 9 9 10 13 13 12 9 9 12 15 15 15 14 14 14 12 10 10 8 7 6 6
7 4 4 4 2 2 2 2 2 1 2 3 3 2 2 1 1 2 4 5 6 5 3 3 3 4 5 5 6 8 7 6 10 14 14 12 10 10 8 10 14 16 15 16 19 22 20 13 11 13 13 13 13 12 12 13 13 13 12 12 13 12 11 12 13 11 10 9 8 10 13 13 11 12 13 14 15 14 13 11 10 7 7 7 5 5 6 6
7 5 3 2 1 2 3 3 2 1 2 1 2 1 1 1 0 2 3 5 7 7 5 4 4 5 6 5 6 7 8 8 8 9 11 12 11 11 10 6 9 13 12 13 17 20 19 12 8 9 9 11 13 13 12 12 13 13 13 12 12 12 11 11 12 12 12 11 10 10 13 14 14 14 15 14 13 12 10 8 7 7 8 9 7 6 8 7
6 5 3 1 1 1 2 2 2 1 1 1 2 2 1 2 2 3 4 4 6 8 8 7 5 4 5 6 6 5 6 9 10 9 8 8 8 9 8 7 5 4 4 9 14 15 12 9 8 8 8 9 11 12 11 10 10 10 10 8 7 7 7 7 8 10 11 12 11 11 14 16 15 15 16 14 12 10 9 9 9 9 9 8 6 5 5 6
5 5 4 2 3 3 2 3 2 1 1 1 2 2 1 2 4 4 4 4 5 6 8 9 7 5 5 5 5 5 4 5 8 10 11 9 7 6 5 3 4 3 1 3 7 8 6 5 6 7 7 8 10 11 10 9 10 9 8 8 7 5 5 5 6 8 9 10 10 14 17 18 17 17 17 15 12 10 8 7 7 7 6 5 3 2 3 6
5 5 4 2 2 3 3 2 1 2 2 2 3 3 2 1 3 4 4 4 4 4 4 7 8 7 6 5 5 6 6 6 6 7 11 12 9 7 6 5 4 3 2 1 3 5 4 4 6 7 7 8 9 11 11 9 8 6 6 7 8 8 7 7 8 9 9 8 8 12 17 18 18 17 15 13 12 10 7 5 5 4 3 4 4 3 5 7
Wind_Direction
269 270 270 272 273 273 273 274 274 274 274 275 275 275 275 274 273 273 272 270 268 267 266 265 265 266 267 268 271 274 275 272 268 263 256 251 249 253 262 264 259 257 253 249 246 245 243 241 240 240 239 236 236 238 237 238 237 237 237 236 243 248 250 256 260 262 263 260 253 249 263 302 327 352 10 12 60 120 144 155 172 191 212 226 233 249 261 264
265 267 269 271 273 274 275 275 276 276 275 275 275 275 274 274 274 273 273 272 270 269 268 266 265 264 264 266 269 272 274 272 265 260 256 250 247 249 258 263 259 256 254 251 247 243 239 236 235 235 236 235 235 236 236 237 236 236 237 240 247 250 251 255 260 263 265 263 259 260 265 285 309 325 356 6 63 109 124 137 141 156 209 225 227 248 264 268
262 264 265 267 270 272 274 275 276 276 276 277 276 276 275 275 274 274 273 273 272 271 269 267 266 264 263 264 266 270 271 272 267 260 255 248 245 247 255 261 257 254 252 250 248 245 242 238 237 237 237 237 236 236 237 237 237 236 236 244 251 250 254 256 257 261 266 267 261 262 267 276 296 310 338 1 81 93 126 140 131 120 178 213 213 236 257 266
261 262 263 264 266 267 269 271 272 275 276 277 277 277 277 277 276 276 275 275 274 273 272 269 268 266 265 264 265 267 267 271 269 260 253 247 243 246 253 259 256 252 248 246 247 246 243 240 239 239 240 240 239 237 238 238 237 237 238 250 257 254 256 256 257 259 263 268 265 266 270 273 280 295 320 338 63 76 157 153 145 145 175 211 220 235 255 255
260 260 261 262 264 266 267 267 269 271 273 274 276 277 278 278 278 278 277 276 275 274 273 271 268 268 267 265 265 264 265 273 271 260 254 247 243 245 250 256 253 249 245 241 242 242 242 240 237 238 240 242 242 242 242 241 239 241 246 254 258 257 255 255 257 259 261 265 266 273 276 273 269 271 286 313 3 21 170 159 157 170 201 217 226 236 252 248
258 258 260 262 264 266 268 269 269 270 271 272 273 274 275 276 277 277 277 276 275 274 273 271 269 269 268 267 264 260 258 263 265 260 255 248 244 244 248 253 252 248 245 241 239 240 241 241 239 238 240 243 246 248 249 248 246 249 256 256 256 259 258 257 259 259 264 266 267 274 277 271 262 255 244 280 344 350 155 168 172 185 202 213 226 235 257 266
254 256 258 262 265 268 271 272 272 272 272 273 272 273 274 274 274 274 276 276 275 274 272 271 269 268 269 267 263 258 253 254 257 254 251 249 247 246 248 252 253 251 247 241 238 238 239 240 239 238 239 242 245 249 253 253 254 255 259 258 259 262 263 265 266 263 263 264 266 269 270 266 262 256 231 229 319 285 161 171 199 199 199 209 232 241 288 306
252 255 258 261 264 267 270 272 273 273 273 274 274 274 275 274 273 273 274 275 275 274 273 271 269 269 269 268 264 259 255 255 255 251 248 249 249 249 249 251 252 250 246 240 238 237 238 239 239 239 240 242 243 247 252 254 255 254 256 260 263 265 267 270 269 266 262 260 263 264 261 255 260 257 238 236 293 263 226 230 230 212 199 197 225 252 327 349
255 257 260 262 264 265 268 269 271 272 273 274 275 275 276 276 276 276 275 275 275 275 275 273 272 270 269 269 265 262 262 258 254 249 246 245 246 249 249 250 249 247 245 241 238 235 234 235 234 235 237 237 238 239 244 250 252 252 255 258 258 258 261 264 264 263 262 260 259 259 253 243 251 251 241 248 269 254 238 238 226 203 195 189 210 248 32 59
259 261 262 263 264 265 266 267 269 270 272 273 274 274 275 276 277 278 278 278 277 277 277 276 275 272 270 268 263 266 267 259 253 248 244 242 242 245 247 250 251 248 249 247 243 237 232 229 225 224 225 226 230 234 238 243 246 247 251 252 250 250 252 257 260 259 262 262 259 257 247 236 242 242 234 243 250 241 239 239 213 190 192 190 195 169 83 80
262 263 263 264 264 265 265 266 267 269 270 271 272 272 273 274 276 278 279 279 279 279 280 280 279 276 273 268 265 269 266 257 255 249 244 243 242 244 246 248 251 250 252 252 250 244 237 230 223 219 217 221 225 232 238 238 240 240 243 248 251 254 254 257 261 260 260 261 258 257 250 238 236 232 221 219 224 221 229 229 210 206 208 202 192 161 101 87
261 263 263 264 264 263 264 264 265 267 269 270 270 271 271 272 274 276 277 278 279 279 281 281 280 281 277 272 273 270 261 254 253 248 245 246 246 247 247 246 244 244 246 250 250 248 244 236 226 215 208 218 221 223 235 236 236 236 240 247 251 255 257 262 268 272 271 267 259 256 259 251 239 230 215 205 202 203 218 217 204 209 214 210 196 175 174 117
260 261 262 263 263 263 263 263 264 266 268 270 270 270 270 271 272 273 275 277 278 279 280 280 278 280 276 273 279 271 258 250 246 247 246 241 239 241 243 240 231 232 237 245 248 246 245 241 231 219 209 208 210 212 225 230 232 235 241 247 251 256 263 270 280 285 283 279 262 252 260 255 240 230 217 206 202 206 222 226 219 219 217 213 198 175 188 146
261 262 263 264 264 265 265 266 268 269 270 271 271 271 272 272 272 273 274 275 277 277 277 277 276 277 270 265 276 273 260 252 243 242 244 236 231 231 230 224 220 224 230 239 245 244 242 239 234 226 216 205 203 211 219 222 226 233 240 249 255 261 268 271 275 283 289 287 255 243 256 257 247 243 227 212 210 214 224 233 237 245 243 226 209 181 184 166
263 265 266 266 267 268 269 271 272 273 272 273 273 273 273 273 274 274 274 274 275 274 273 273 272 273 269 264 271 272 263 259 252 244 242 239 232 226 217 209 213 221 226 234 241 241 239 235 233 228 218 209 207 211 214 219 226 231 236 247 255 259 265 267 264 261 262 270 255 240 252 258 253 249 233 222 220 220 225 232 239 250 256 242 219 190 183 182
266 267 268 268 269 270 271 273 274 274 274 273 273 273 274 275 275 274 274 274 273 273 271 270 269 269 269 267 269 271 265 262 260 253 244 240 236 224 209 205 211 217 223 231 236 238 234 228 228 225 217 213 213 215 216 222 227 230 234 240 250 258 268 274 272 256 242 244 251 244 246 249 242 232 223 221 223 224 228 232 239 247 253 248 228 200 184 190
269 270 271 271 271 271 273 274 275 276 274 273 274 274 274 275 274 274 274 273 273 272 271 270 268 267 267 266 267 271 269 262 260 259 251 242 238 229 215 208 209 214 219 226 231 233 230 224 222 220 217 215 215 216 219 226 228 231 237 244 251 260 269 273 262 242 235 232 239 245 248 245 243 238 228 222 223 229 232 232 237 243 246 245 232 213 192 196
272 273 273 274 274 274 275 276 277 277 276 275 276 277 277 277 277 276 276 274 272 272 271 270 267 266 265 263 263 263 263 262 257 257 256 249 241 232 222 210 206 213 219 223 227 226 224 223 219 218 219 219 219 218 219 226 229 229 236 246 254 259 264 269 265 251 245 241 238 246 254 244 243 244 242 237 235 240 243 237 235 235 236 236 225 216 202 202
274 276 276 277 277 278 278 278 278 277 278 278 278 280 281 280 280 280 279 276 274 273 273 270 266 263 258 253 254 251 253 260 255 252 254 252 242 228 220 212 207 213 218 221 224 222 220 220 216 217 222 224 224 222 224 228 230 228 231 240 250 257 260 263 268 262 254 253 245 244 254 251 243 241 239 239 237 241 246 243 238 232 229 226 217 211 205 202
277 278 279 279 279 280 280 280 280 279 280 282 282 284 284 284 285 285 283 280 280 278 274 271 267 261 255 249 248 249 254 257 253 250 249 247 240 221 213 211 208 212 217 218 221 220 218 219 219 223 228 228 226 227 229 234 239 242 243 246 251 259 264 267 276 277 266 265 254 243 252 253 244 237 233 234 234 236 241 241 240 235 228 221 213 210 207 201
279 280 279 280 280 280 281 281 281 281 283 284 285 287 287 288 290 290 287 284 284 280 274 270 264 259 254 251 247 246 248 248 245 242 240 239 231 216 211 212 210 213 215 211 214 217 217 220 223 228 232 231 229 230 233 237 244 248 252 256 258 263 269 276 287 288 270 265 259 250 257 256 246 240 235 233 235 236 237 238 238 237 235 226 214 210 210 205
280 279 278 279 280 281 282 282 283 284 285 285 286 288 288 291 294 293 292 289 278 271 272 269 266 264 257 251 247 243 242 239 235 232 233 232 223 214 212 214 214 216 214 209 210 215 219 224 225 227 230 230 230 231 233 238 243 248 253 258 260 265 274 283 294 297 272 261 259 256 264 262 252 248 244 238 237 237 236 236 236 238 240 231 216 212 210 206
279 278 277 278 280 282 284 284 283 285 285 285 287 289 291 295 296 294 296 292 280 270 266 262 265 265 255 250 245 240 238 234 227 222 224 226 223 219 216 216 218 218 215 213 213 213 220 228 227 224 227 230 230 231 234 237 242 247 252 257 261 265 276 286 289 291 274 262 259 263 273 269 255 252 251 244 241 239 237 236 235 236 238 232 221 218 215 208
277 276 276 278 281 283 284 283 284 285 284 285 289 292 294 296 295 294 300 296 290 299 267 242 250 252 247 253 250 244 240 233 223 217 220 223 222 221 219 218 220 221 221 220 220 219 223 231 232 227 230 232 233 235 236 241 247 252 255 258 263 268 274 278 282 284 277 268 263 267 278 271 257 251 251 250 248 244 240 238 237 235 235 232 223 218 216 211
275 275 275 279 282 283 282 282 284 285 285 289 291 292 292 292 292 296 308 306 303 353 39 191 209 263 251 264 266 253 243 235 223 215 219 222 222 224 222 219 219 222 227 225 223 225 227 231 232 226 227 230 234 237 237 242 250 256 259 261 267 273 275 273 275 279 279 276 261 249 266 267 257 253 256 263 262 251 240 234 234 232 232 231 223 214 213 214
274 275 277 281 281 281 281 281 283 283 287 292 289 287 286 285 288 299 312 309 302 20 34 165 160 341 297 296 293 266 245 235 216 209 214 217 221 227 224 221 220 221 227 227 226 229 231 230 230 225 216 217 224 230 231 235 247 259 265 269 272 271 266 263 265 266 266 268 255 251 265 277 278 273 272 278 273 257 240 228 225 223 221 223 221 215 215 217
275 276 279 281 278 277 278 279 280 282 285 285 280 279 276 272 280 302 318 314 298 25 18 101 129 33 349 328 313 281 233 214 203 206 210 211 216 223 224 224 222 220 221 221 224 233 235 231 230 229 225 223 226 227 226 227 237 254 272 287 275 258 252 255 257 254 256 268 276 274 267 267 280 283 287 292 277 255 239 225 218 216 213 213 213 212 216 219
275 278 282 277 270 270 274 278 279 275 273 273 273 271 264 255 268 301 335 348 227 157 132 109 113 15 360 346 313 257 193 180 192 205 205 205 211 216 221 224 224 225 225 220 222 234 240 237 233 230 230 235 234 230 224 220 226 238 270 306 279 248 242 243 249 258 267 279 279 268 251 238 269 287 294 294 269 232 222 217 211 209 207 205 206 209 216 220
276 281 276 267 266 269 271 274 273 264 260 263 265 257 243 232 242 277 16 123 183 177 186 223 240 301 358 355 324 214 199 184 176 193 200 202 206 212 218 222 224 228 231 230 231 238 240 237 232 227 229 230 227 222 216 214 221 237 273 296 284 253 246 245 253 264 267 265 257 248 237 230 274 296 293 287 253 213 210 209 203 201 201 201 204 210 217 221
277 270 258 260 267 266 261 263 263 261 260 257 254 244 229 223 222 174 82 222 193 190 215 229 225 239 350 354 354 199 206 203 194 179 191 201 204 209 214 218 223 228 231 232 235 237 237 239 238 230 221 213 209 210 210 214 228 248 268 287 292 266 258 262 257 251 245 248 255 260 253 236 270 299 275 255 230 210 212 212 205 202 203 203 206 212 218 221
261 247 249 259 265 262 257 258 258 257 257 249 240 231 217 213 205 159 121 219 231 240 208 205 223 234 328 348 337 242 202 209 212 195 186 198 202 207 209 211 216 220 227 231 233 236 237 242 244 239 233 222 214 212 215 227 240 251 260 262 261 236 213 232 222 204 223 246 267 272 251 221 228 263 247 227 215 212 214 213 210 207 207 208 208 212 218 221
235 239 251 259 262 263 260 259 256 251 248 238 229 217 201 201 213 211 207 241 295 263 198 209 231 241 302 338 329 279 208 208 214 203 200 204 205 208 210 212 211 206 213 226 232 239 243 246 247 247 250 243 233 230 233 241 244 248 248 228 204 186 167 189 189 191 239 257 265 262 227 208 226 238 241 233 217 218 217 208 207 209 212 216 217 218 220 221
232 245 256 258 260 263 261 258 252 245 238 227 220 206 191 190 228 229 226 243 275 273 277 285 269 273 305 324 320 287 213 205 204 196 206 214 208 210 211 213 215 212 213 222 229 239 249 252 249 247 247 237 228 230 231 234 233 233 232 209 189 171 145 191 191 200 267 263 248 239 223 218 227 229 237 234 219 216 218 210 208 210 213 219 226 226 224 221
239 250 254 258 261 262 260 254 245 237 226 217 209 195 190 200 234 237 240 249 259 271 286 293 288 289 302 316 321 304 211 201 198 195 211 214 206 209 210 211 214 215 218 220 223 228 236 252 245 237 236 225 217 219 220 225 231 236 232 211 198 194 190 196 199 217 254 257 222 214 212 217 207 212 226 226 219 214 211 207 205 208 212 218 225 224 221 221
243 249 254 261 263 264 263 249 232 219 212 208 200 195 199 218 238 250 265 264 266 276 283 290 291 291 290 263 339 337 225 199 192 193 210 212 205 208 210 211 211 212 215 214 209 212 224 247 236 216 218 218 214 216 219 228 239 243 225 211 210 208 208 208 201 211 220 176 189 197 210 221 211 214 218 217 219 215 209 204 199 202 208 213 221 220 219 219
241 247 252 258 262 266 259 224 189 196 202 198 198 206 216 231 245 260 273 277 284 288 291 297 291 290 290 232 178 358 247 198 189 193 203 208 210 212 212 213 212 212 216 217 214 208 217 241 230 203 207 210 208 213 218 222 230 224 205 207 217 216 213 212 198 193 203 221 215 204 223 224 212 219 220 220 226 220 217 215 204 202 202 200 201 202 209 208
237 242 239 243 250 258 250 201 177 188 197 197 204 217 230 242 252 263 272 279 290 294 301 309 293 287 298 245 189 45 192 189 188 197 201 202 211 218 216 217 218 219 222 223 221 221 228 242 237 207 204 207 207 209 214 217 218 211 206 213 218 209 210 213 196 120 188 229 231 215 244 228 203 212 221 221 228 226 224 222 214 209 203 194 187 185 190 191
231 230 223 224 227 235 238 218 202 199 203 210 217 229 242 248 255 265 271 278 287 294 301 306 285 278 292 276 290 54 120 184 189 195 199 197 202 215 217 221 226 228 231 232 228 228 236 248 248 232 213 210 216 220 218 219 219 218 220 221 210 195 203 205 196 178 198 219 247 214 255 242 213 209 216 217 221 224 223 220 217 213 206 196 185 181 181 180
223 215 208 210 212 219 223 223 228 223 221 226 230 239 249 253 257 262 268 273 280 287 292 292 277 270 272 278 290 330 72 114 185 197 199 195 191 191 206 217 225 228 230 232 231 229 230 237 252 245 219 205 213 219 215 213 216 216 219 218 210 206 205 198 201 216 210 205 218 199 231 241 221 216 216 217 221 223 222 218 216 211 203 194 184 182 185 188
210 200 198 200 201 211 224 236 240 232 231 237 240 245 253 256 256 261 268 270 271 276 278 274 269 268 268 270 275 276 310 38 154 203 203 201 202 193 187 196 207 215 221 224 227 228 227 228 234 221 202 201 206 213 214 214 214 211 212 214 212 210 201 190 205 218 214 177 176 206 214 212 215 215 214 218 222 223 220 214 211 207 200 193 187 190 204 214
199 193 195 195 199 217 235 244 241 232 235 244 248 251 254 258 258 257 262 266 267 266 263 258 255 257 265 263 258 271 296 336 6 207 196 201 209 210 204 202 208 214 218 217 219 221 221 225 227 220 215 216 218 224 217 212 211 211 214 216 215 210 199 187 208 210 204 194 180 198 225 206 210 215 215 216 218 222 219 211 207 204 199 196 199 219 238 238
192 192 194 195 211 236 245 245 241 240 248 251 254 256 259 266 266 250 245 255 260 256 251 248 239 233 249 261 252 263 301 322 312 284 209 201 207 211 213 219 219 218 219 217 217 216 216 223 226 225 233 242 254 261 232 208 208 209 214 216 215 213 207 206 220 202 192 196 186 190 222 226 220 220 221 222 221 223 222 212 204 200 200 205 217 238 247 241
181 183 189 197 227 244 248 254 255 259 274 277 265 262 261 269 263 238 230 238 240 237 239 236 225 220 233 254 255 260 283 294 291 290 237 201 194 193 196 205 209 210 212 210 210 209 210 217 217 214 228 239 244 242 224 213 211 206 210 213 213 216 214 217 231 212 192 190 185 187 213 223 227 222 220 224 224 224 222 214 206 202 205 217 232 245 247 236
173 179 193 211 235 253 254 255 271 307 340 353 321 291 280 255 227 207 204 210 213 218 229 230 222 226 234 245 260 269 270 266 284 289 229 205 195 190 190 199 202 204 206 199 200 203 202 208 207 190 180 207 208 212 210 206 206 205 210 212 212 217 219 221 229 221 202 197 197 204 205 210 225 221 217 224 225 224 223 214 210 210 214 226 235 236 238 229
173 182 197 216 243 259 251 215 85 50 38 38 24 329 322 105 144 177 184 188 195 206 219 226 227 235 242 250 271 279 266 251 250 246 215 213 204 194 196 203 204 209 213 197 188 196 198 203 203 190 176 182 186 193 198 196 196 199 206 207 207 213 217 220 219 212 214 208 202 206 202 199 212 210 211 222 225 222 219 213 214 216 218 223 224 224 232 233
177 187 198 217 239 226 188 134 118 98 69 55 57 58 58 74 111 174 181 177 180 191 204 221 234 243 253 264 273 270 261 247 233 220 213 217 212 199 197 201 202 207 214 207 193 192 198 205 204 202 204 200 192 192 195 198 199 196 195 199 200 206 212 214 209 211 222 213 202 206 213 217 215 202 205 217 220 219 217 214 217 220 218 218 218 222 235 242
187 201 212 219 220 190 166 152 161 129 80 63 70 85 81 60 74 171 180 184 182 175 186 213 237 258 260 263 261 252 253 241 222 216 217 219 225 212 194 191 192 193 201 209 208 205 208 214 212 213 218 213 202 196 195 200 208 207 202 201 202 203 207 209 210 216 218 210 209 216 221 226 221 207 211 214 209 211 214 216 221 225 226 228 226 225 234 227
191 207 210 211 229 226 203 205 215 156 96 70 62 87 121 64 7 178 186 195 197 189 196 218 242 291 288 273 262 256 254 237 216 216 222 228 234 229 209 183 178 181 189 203 209 209 212 217 218 219 222 221 219 219 214 212 217 219 215 211 210 208 206 210 214 219 218 219 230 227 218 215 209 206 214 212 205 205 206 212 218 212 216 233 233 228 230 211
191 195 181 180 243 246 226 234 236 166 110 43 12 42 175 191 226 212 214 221 219 218 227 234 247 285 298 289 277 269 255 242 235 226 227 235 240 246 259 246 184 175 182 193 200 205 209 213 225 227 215 209 211 212 212 212 213 214 212 211 214 214 213 216 220 222 220 221 229 223 211 205 200 201 207 208 208 203 195 199 204 197 210 228 229 225 226 214
185 179 163 124 91 176 203 215 205 148 97 355 356 4 238 196 190 212 229 237 235 229 227 233 249 276 290 285 284 287 263 247 246 239 236 247 247 242 254 263 241 206 187 193 195 199 203 205 218 227 208 193 197 197 194 198 203 202 198 197 206 215 218 218 218 216 211 212 217 213 204 196 191 196 203 204 204 197 189 198 204 204 214 224 222 227 235 229
175 158 150 121 90 93 120 153 167 207 273 287 325 339 314 206 203 224 239 237 241 236 229 236 248 260 275 278 280 293 291 268 255 245 240 243 244 233 214 217 261 280 283 206 193 191 199 195 197 212 202 185 192 198 197 202 212 213 213 217 224 234 234 225 217 211 207 210 208 200 196 191 188 196 201 197 195 193 189 196 202 200 204 208 205 227 274 257
173 152 152 145 99 80 73 104 168 234 251 263 287 304 315 251 220 236 255 256 256 261 255 254 253 252 259 265 265 271 277 279 274 256 244 237 235 234 211 177 169 175 172 157 121 135 158 167 173 191 190 177 183 187 180 184 203 213 221 232 236 240 242 234 224 216 214 216 208 200 199 193 188 194 197 187 187 194 189 179 182 182 184 199 204 229 278 263